TimePDT,TemperatureF,Dew PointF,Humidity,Sea Level PressureIn,VisibilityMPH,Wind Direction,Wind SpeedMPH,Gust SpeedMPH,PrecipitationIn,Events,Conditions,WindDirDegrees,DateUTC
12:55 AM,34.0,17.1,50,30.09,10.0,Calm,Calm,-,N/A,,Clear,0,2013-10-07 07:55:00
1:55 AM,32.0,16.0,52,30.08,10.0,Calm,Calm,-,N/A,,Clear,0,2013-10-07 08:55:00
2:55 AM,32.0,17.1,54,30.06,10.0,Calm,Calm,-,N/A,,Clear,0,2013-10-07 09:55:00
3:55 AM,27.0,16.0,63,30.06,10.0,Calm,Calm,-,N/A,,Clear,0,2013-10-07 10:55:00
4:55 AM,25.0,15.1,66,30.08,10.0,Calm,Calm,-,N/A,,Clear,0,2013-10-07 11:55:00
5:55 AM,25.0,16.0,69,30.08,10.0,Calm,Calm,-,N/A,,Clear,0,2013-10-07 12:55:00
6:55 AM,27.0,17.1,66,30.08,10.0,Calm,Calm,-,N/A,,Clear,0,2013-10-07 13:55:00
7:55 AM,28.9,18.0,64,30.09,10.0,Calm,Calm,-,N/A,,Clear,0,2013-10-07 14:55:00
8:55 AM,46.0,21.0,37,30.06,10.0,Calm,Calm,-,N/A,,Clear,0,2013-10-07 15:55:00
9:55 AM,51.1,18.0,27,30.04,10.0,Calm,Calm,-,N/A,,Clear,0,2013-10-07 16:55:00
10:55 AM,59.0,19.0,21,30.03,10.0,Calm,Calm,-,N/A,,Clear,0,2013-10-07 17:55:00
11:55 AM,64.0,19.0,18,30.00,10.0,WNW,3.5,-,N/A,,Clear,300,2013-10-07 18:55:00
12:55 PM,64.9,19.9,18,30.00,10.0,West,9.2,19.6,N/A,,Clear,260,2013-10-07 19:55:00
1:55 PM,64.9,18.0,16,29.99,10.0,WNW,15.0,-,N/A,,Clear,290,2013-10-07 20:55:00
2:55 PM,64.9,17.1,16,29.97,10.0,WSW,12.7,19.6,N/A,,Clear,250,2013-10-07 21:55:00
3:55 PM,64.9,17.1,16,29.98,10.0,West,15.0,-,N/A,,Clear,270,2013-10-07 22:55:00
4:55 PM,60.1,21.0,22,30.00,10.0,NW,17.3,-,N/A,,Partly Cloudy,320,2013-10-07 23:55:00
5:55 PM,60.1,27.0,28,30.00,10.0,NW,13.8,-,N/A,,Clear,310,2013-10-08 00:55:00
6:55 PM,54.0,30.0,40,30.03,10.0,NW,13.8,-,N/A,,Clear,320,2013-10-08 01:55:00
7:55 PM,50.0,28.9,44,30.05,10.0,NNW,11.5,-,N/A,,Clear,340,2013-10-08 02:55:00
8:55 PM,48.0,30.0,50,30.04,10.0,NW,8.1,-,N/A,,Clear,310,2013-10-08 03:55:00
9:55 PM,42.1,28.0,58,30.06,10.0,Calm,Calm,-,N/A,,Clear,0,2013-10-08 04:55:00
10:55 PM,39.9,28.0,63,30.04,10.0,West,6.9,-,N/A,,Clear,260,2013-10-08 05:55:00
11:55 PM,36.0,27.0,70,30.04,10.0,WSW,4.6,-,N/A,,Clear,250,2013-10-08 06:55:00